FW1098 Weather Reports


time (UTC)temp
C
wind
direction
speed
KPH
gust
KPH
rain 1hr
cm
rain 24hr
cm
rain mn
cm
humidity
%
barometer
mb
20260503213047 21 230 1.6 6.4 0.00 0.03 0.03 42 1017.0
20260503211559 21 257 1.6 9.7 0.00 0.03 0.03 43 1017.0
20260503210042 21 298 3.2 12.9 0.00 0.03 0.03 43 1017.1
20260503204541 21 189 4.8 9.7 0.00 0.03 0.03 42 1017.2
20260503203040 21 246 1.6 8.0 0.00 0.03 0.03 41 1017.3
20260503201540 21 246 3.2 11.3 0.00 0.03 0.03 45 1017.6
20260503200039 21 195 4.8 12.9 0.00 0.03 0.03 41 1017.8
20260503194539 21 243 1.6 6.4 0.00 0.03 0.03 42 1018.1
20260503193045 21 240 4.8 14.5 0.00 0.03 0.03 41 1018.5
20260503191538 20 224 3.2 11.3 0.00 0.03 0.03 42 1018.8
20260503190037 20 292 0.0 9.7 0.00 0.03 0.03 44 1019.0
20260503184534 20 246 1.6 6.4 0.00 0.03 0.03 44 1019.4
20260503183038 19 215 1.6 12.9 0.00 0.03 0.03 45 1019.7
20260503181601 19 320 1.6 16.1 0.00 0.03 0.03 44 1019.8
20260503180136 19 219 1.6 11.3 0.00 0.03 0.03 46 1019.9
20260503174529 19 257 3.2 11.3 0.00 0.05 0.03 50 1020.0
20260503173043 19 265 1.6 12.9 0.00 0.05 0.03 47 1020.1
20260503171526 18 263 3.2 11.3 0.00 0.05 0.03 49 1020.3
20260503150107 15 151 0.0 4.8 0.00 0.13 0.03 60 1021.4
20260503081600 7 323 0.0 0.0 0.00 1.42 0.00 93 1017.7
20260503071555 7 323 0.0 0.0 0.00 1.50 0.00 92 1017.3
20260503054537 9 323 0.0 0.0 0.00 1.50 0.00 92 1017.0
20260503053040 9 323 0.0 0.0 0.00 1.50 0.00 92 1016.9
20260503051534 10 323 0.0 0.0 0.00 1.50 0.00 92 1016.8
20260503050034 10 323 0.0 0.0 0.00 1.50 0.00 92 1016.7
20260503044600 10 323 0.0 0.0 0.00 1.50 0.00 92 1016.3
20260503043026 10 323 0.0 0.0 0.00 1.50 0.00 93 1016.1
20260503041524 11 323 0.0 0.0 0.00 1.50 0.00 93 1015.8
20260503040123 11 323 0.0 0.0 0.00 1.50 0.00 93 1015.8
20260503034522 11 323 0.0 0.0 0.00 1.50 1.50 93 1016.0
20260503033021 11 323 0.0 0.0 0.00 1.50 1.50 93 1016.4
20260503031520 11 323 0.0 0.0 0.00 1.50 1.50 93 1016.2
20260503030019 11 323 0.0 0.0 0.00 1.50 1.50 92 1016.2
20260503024519 11 323 0.0 0.0 0.00 1.50 1.50 92 1016.3
20260503023017 11 323 0.0 0.0 0.00 1.50 1.50 91 1016.1
20260503021519 11 323 0.0 0.0 0.00 1.50 1.50 91 1015.6
20260503020019 11 323 0.0 0.0 0.00 1.50 1.50 91 1015.2
20260503014510 11 323 0.0 0.0 0.00 1.50 1.50 90 1014.9
20260503013009 11 323 0.0 0.0 0.00 1.50 1.50 89 1014.7
20260503011507 11 323 0.0 0.0 0.00 1.50 1.50 89 1014.4
20260503010005 11 323 0.0 0.0 0.00 1.50 1.50 88 1014.3
20260503004504 11 323 0.0 0.0 0.00 1.50 1.50 88 1014.1
20260503003002 12 323 0.0 0.0 0.00 1.50 1.50 87 1013.9
20260503001503 12 323 0.0 0.0 0.00 1.50 1.50 86 1013.6
20260503000106 12 323 0.0 0.0 0.00 1.50 1.50 86 1013.5
20260502234618 12 323 0.0 0.0 0.00 1.50 1.50 87 1013.3
20260502233059 12 323 0.0 0.0 0.00 1.50 1.50 86 1013.2
20260502231559 13 323 0.0 3.2 0.00 1.50 1.50 83 1013.0
20260502230059 14 323 0.0 4.8 0.00 1.50 1.50 77 1012.9
20260502224602 15 119 0.0 4.8 0.00 1.50 1.50 76 1012.9
20260502223105 14 30 0.0 3.2 0.00 1.50 1.50 78 1013.1
20260502221601 15 26 0.0 4.8 0.00 1.50 1.50 77 1013.1
20260502214613 13 52 0.0 4.8 0.00 1.50 1.50 80 1012.9